W1HS Weather Reports


Display with metric or nautical units.
time (UTC)temp
F
wind
direction
speed
MPH
gust
MPH
rain 1hr
in
rain 24hr
in
rain mn
in
humidity
%
barometer
mb
20260507174118 55 270 9.0 13.0 0.00 0.45 0.00 44 987.0
20260507173120 54 270 12.0 15.0 0.00 0.46 0.00 42 987.0
20260507172119 54 293 14.0 21.0 0.00 0.49 0.00 41 987.1
20260507171120 53 293 12.0 17.0 0.00 0.51 0.00 44 987.3
20260507170118 53 270 7.0 11.0 0.00 0.53 0.00 46 987.5
20260507165120 53 270 5.0 7.0 0.00 0.54 0.00 45 987.7
20260507164120 53 293 5.0 9.0 0.00 0.55 0.00 45 988.0
20260507163119 52 270 17.0 22.0 0.00 0.57 0.00 45 988.0
20260507162120 52 270 6.0 11.0 0.00 0.57 0.00 50 988.1
20260507161119 52 315 7.0 11.0 0.00 0.58 0.00 46 988.1
20260507160120 52 293 9.0 13.0 0.00 0.58 0.00 48 988.3
20260507155118 51 270 11.0 15.0 0.00 0.58 0.00 44 988.4
20260507154122 51 293 11.0 16.0 0.00 0.58 0.00 51 988.6
20260507153119 50 293 9.0 18.0 0.00 0.58 0.00 48 988.6
20260507152121 50 315 9.0 14.0 0.00 0.58 0.00 49 988.5
20260507151125 50 270 13.0 19.0 0.00 0.58 0.00 51 988.5
20260507150900 50 293 12.0 25.0 0.00 0.58 0.00 52 988.6
20260507150859 50 270 13.0 18.0 0.00 0.58 0.00 52 988.6
20260507150856 49 270 10.0 15.0 0.00 0.58 0.00 55 988.6
20260507150854 49 23 4.0 9.0 0.00 0.58 0.00 65 988.5
20260507141033 49 0 1.0 5.0 0.00 0.58 0.00 64 988.5
20260507140422 49 270 9.0 12.0 0.00 0.58 0.00 62 988.4
20260507135528 49 293 6.0 11.0 0.00 0.58 0.00 67 988.3
20260507134932 48 315 4.0 10.0 0.00 0.58 0.00 66 988.2
20260507134228 48 315 10.0 19.0 0.00 0.58 0.00 63 988.4
20260507133220 47 293 6.0 10.0 0.00 0.58 0.00 69 988.1
20260507132218 48 270 6.0 9.0 0.00 0.58 0.00 69 988.1
20260507131337 48 293 5.0 10.0 0.00 0.58 0.00 65 988.2
20260507130720 47 338 6.0 10.0 0.00 0.58 0.00 67 988.4
20260507125719 47 270 9.0 17.0 0.00 0.58 0.00 78 988.3
20260507124722 47 270 6.0 7.0 0.00 0.58 0.00 86 988.2
20260507123728 47 270 5.0 8.0 0.00 0.58 0.00 88 988.2
20260507122719 46 270 6.0 9.0 0.00 0.58 0.00 90 988.1
20260507121728 46 293 2.0 4.0 0.00 0.58 0.00 87 988.1
20260507120719 46 293 2.0 4.0 0.00 0.58 0.00 90 987.9
20260507115719 45 203 1.0 2.0 0.00 0.58 0.00 90 987.8
20260507114719 45 0.0 0.0 0.00 0.58 0.00 91 987.9
20260507113826 44 0.0 0.0 0.00 0.58 0.00 91 988.0
20260507112819 44 0.0 0.0 0.00 0.58 0.00 92 988.0
20260507111819 43 0.0 0.0 0.00 0.58 0.00 94 987.8
20260507110820 43 0.0 0.0 0.00 0.58 0.00 95 987.8
20260507105819 42 0.0 0.0 0.00 0.58 0.00 94 987.8
20260507104940 42 0.0 0.0 0.00 0.58 0.00 94 987.8
20260507104120 42 0.0 0.0 0.00 0.58 0.00 95 987.6
20260507103123 41 0.0 0.0 0.00 0.58 0.00 95 987.5
20260507102122 41 0.0 0.0 0.00 0.58 0.00 94 987.4
20260507101120 41 0.0 0.0 0.00 0.58 0.00 94 987.2
20260507100233 41 0.0 0.0 0.00 0.58 0.00 94 987.3
20260507095719 41 0.0 0.0 0.00 0.58 0.00 94 987.4
20260507094721 41 0.0 0.0 0.00 0.58 0.00 94 987.4
20260507093720 41 0.0 0.0 0.00 0.58 0.00 94 987.6
20260507092831 41 0.0 0.0 0.00 0.58 0.00 93 987.6
20260507092420 41 0.0 0.0 0.00 0.58 0.00 93 987.7
20260507091419 42 0.0 0.0 0.00 0.58 0.00 92 987.8
20260507090419 42 0.0 0.0 0.00 0.58 0.00 92 987.8
20260507085422 42 0.0 0.0 0.00 0.58 0.00 93 987.9
20260507084425 42 315 1.0 3.0 0.00 0.58 0.00 93 987.8
20260507083421 42 293 1.0 3.0 0.00 0.58 0.00 93 987.5
20260507082427 43 0.0 1.0 0.00 0.58 0.00 93 987.6
20260507081419 43 0.0 0.0 0.00 0.58 0.00 93 987.7
20260507080419 43 0.0 0.0 0.00 0.58 0.00 93 987.7
20260507075544 43 0.0 1.0 0.00 0.58 0.00 93 987.6
20260507075221 43 0.0 0.0 0.00 0.58 0.00 94 987.6
20260507074219 43 270 2.0 3.0 0.00 0.58 0.00 94 987.7
20260507073219 43 270 2.0 4.0 0.00 0.58 0.00 94 987.6
20260507072219 43 270 1.0 4.0 0.00 0.58 0.00 94 987.7
20260507071219 43 270 1.0 3.0 0.00 0.58 0.00 94 987.6
20260507070218 43 0.0 0.0 0.00 0.58 0.00 94 987.1
20260507065221 43 270 1.0 3.0 0.00 0.58 0.00 94 987.2
20260507064219 43 270 1.0 3.0 0.00 0.58 0.00 95 986.9
20260507063218 43 0.0 0.0 0.00 0.58 0.00 95 986.9
20260507062219 43 0.0 0.0 0.00 0.58 0.00 95 987.3
20260507061221 43 0.0 0.0 0.00 0.58 0.00 95 987.6
20260507060219 43 0.0 0.0 0.00 0.58 0.00 95 987.3
20260507055221 43 0.0 0.0 0.00 0.58 0.00 95 987.6
20260507054326 43 0.0 2.0 0.00 0.58 0.00 95 987.7
20260507053707 43 0.0 0.0 0.00 0.58 0.00 95 987.9
20260507052954 43 270 1.0 4.0 0.00 0.58 0.00 95 987.8
20260507052320 43 0.0 0.0 0.00 0.58 0.00 95 988.0
20260507051320 43 0.0 0.0 0.00 0.58 0.00 95 987.6
20260507050319 44 0.0 2.0 0.00 0.58 0.00 95 987.5
20260507045321 44 270 3.0 4.0 0.00 0.58 0.00 95 987.5
20260507044318 44 270 3.0 4.0 0.00 0.58 0.00 96 987.6
20260507043533 44 0.0 0.0 0.00 0.58 0.00 96 987.5
20260507043051 44 0.0 0.0 0.00 0.58 0.00 96 987.4
20260507042335 44 0.0 0.0 0.00 0.58 0.00 95 987.4
20260507041845 45 0.0 0.0 0.00 0.58 0.00 95 987.5
20260507040820 45 0.0 2.0 0.00 0.58 0.00 95 987.7
20260507040427 45 270 3.0 4.0 0.00 0.58 0.00 96 987.6
20260507035919 45 0.0 2.0 0.00 0.58 0.58 96 987.6
20260507034919 45 293 1.0 2.0 0.01 0.58 0.58 95 987.5
20260507033919 45 293 3.0 5.0 0.01 0.58 0.58 95 987.4
20260507031945 46 315 3.0 4.0 0.03 0.58 0.58 95 987.6
20260507031729 46 315 2.0 5.0 0.03 0.58 0.58 95 987.6
20260507031431 46 0.0 0.0 0.03 0.58 0.58 95 987.6
20260507030713 46 0.0 3.0 0.03 0.58 0.58 95 987.6
20260507030709 46 315 1.0 4.0 0.04 0.57 0.57 95 987.5
20260507023816 47 0.0 0.0 0.03 0.56 0.56 95 987.6
20260507023621 47 0.0 0.0 0.03 0.56 0.56 95 987.7
20260507022618 47 0.0 0.0 0.03 0.56 0.56 95 987.7
20260507021619 47 0.0 2.0 0.02 0.55 0.55 95 987.7
20260507020620 47 0.0 0.0 0.03 0.55 0.55 95 987.7
20260507015620 47 0.0 1.0 0.02 0.54 0.54 95 987.6
20260507014620 48 0.0 0.0 0.01 0.53 0.53 95 987.4
20260507013619 48 293 2.0 4.0 0.01 0.53 0.53 95 987.5
20260507012618 49 315 1.0 3.0 0.01 0.53 0.53 95 987.3
20260507011620 49 0.0 1.0 0.01 0.53 0.53 95 987.0
20260507010619 50 23 2.0 4.0 0.00 0.52 0.52 95 986.9
20260507005620 51 0.0 2.0 0.00 0.52 0.52 95 986.7
20260507004618 51 0 1.0 5.0 0.01 0.52 0.52 94 986.3
20260507003619 52 0.0 2.0 0.01 0.52 0.52 95 986.3
20260507002618 53 0.0 2.0 0.02 0.52 0.52 95 986.3
20260507001619 53 315 2.0 4.0 0.03 0.52 0.52 95 985.8
20260507000618 53 0.0 0.0 0.09 0.52 0.52 95 985.7
20260506235619 54 0.0 1.0 0.15 0.52 0.52 94 985.5
20260506234620 54 315 3.0 5.0 0.14 0.51 0.51 94 985.4
20260506233618 56 0.0 1.0 0.14 0.51 0.51 94 985.2
20260506232618 57 315 3.0 8.0 0.13 0.50 0.50 95 984.9
20260506231618 58 293 5.0 7.0 0.12 0.49 0.49 95 984.8
20260506230619 58 248 5.0 8.0 0.08 0.43 0.43 95 984.5
20260506225618 58 225 4.0 8.0 0.05 0.37 0.37 95 984.3
20260506224620 58 225 1.0 2.0 0.05 0.37 0.37 95 984.3
20260506223633 58 225 4.0 7.0 0.05 0.37 0.37 94 984.3
20260506223551 58 225 4.0 8.0 0.05 0.37 0.37 94 984.4
20260506222524 58 203 1.0 5.0 0.05 0.37 0.37 94 984.4
20260506221628 58 225 5.0 11.0 0.05 0.37 0.37 94 984.3
20260506220618 58 180 4.0 12.0 0.03 0.35 0.35 94 984.3
20260506215618 58 225 7.0 11.0 0.00 0.32 0.32 94 984.1
20260506214618 58 225 12.0 18.0 0.00 0.32 0.32 94 984.0
20260506213620 58 248 6.0 14.0 0.01 0.32 0.32 94 984.1
20260506212618 58 203 9.0 17.0 0.01 0.32 0.32 94 984.3
20260506211738 59 248 9.0 17.0 0.01 0.32 0.32 94 984.3
20260506205921 59 158 7.0 12.0 0.01 0.32 0.32 94 984.2
20260506204921 59 225 4.0 8.0 0.01 0.32 0.32 93 984.3
20260506203919 59 203 8.0 15.0 0.00 0.31 0.31 93 984.2
20260506202918 59 225 11.0 15.0 0.01 0.31 0.31 93 984.3
20260506201918 59 203 7.0 13.0 0.01 0.31 0.31 93 984.4
20260506200918 59 158 6.0 18.0 0.01 0.31 0.31 93 984.4
20260506195918 59 180 9.0 17.0 0.02 0.31 0.31 93 984.4
20260506194933 60 225 7.0 12.0 0.03 0.31 0.31 94 984.6
20260506193923 59 180 3.0 7.0 0.07 0.31 0.31 94 984.6
20260506193033 60 203 4.0 10.0 0.11 0.30 0.30 94 984.6
20260506192825 60 203 4.0 12.0 0.11 0.30 0.30 94 984.8
20260506191920 60 180 6.0 11.0 0.13 0.30 0.30 94 984.8
20260506190920 60 203 4.0 10.0 0.14 0.30 0.30 94 984.8
20260506185919 59 225 2.0 4.0 0.14 0.29 0.29 94 984.8
20260506184920 59 158 6.0 11.0 0.14 0.28 0.28 94 985.1
20260506183919 59 203 3.0 5.0 0.11 0.24 0.24 94 985.4
20260506182918 59 225 5.0 9.0 0.08 0.19 0.19 93 985.3
20260506181927 59 203 7.0 16.0 0.09 0.17 0.17 93 985.5
20260506180922 59 203 4.0 10.0 0.09 0.16 0.16 93 985.6
20260506175919 59 225 9.0 19.0 0.10 0.15 0.15 93 985.9